TimeEDT,TemperatureF,Dew PointF,Humidity,Sea Level PressureIn,VisibilityMPH,Wind Direction,Wind SpeedMPH,Gust SpeedMPH,PrecipitationIn,Events,Conditions,WindDirDegrees,DateUTC
12:55 AM,60.3,57.7,91,30.08,4.0,NE,3.5,-,N/A,,Mostly Cloudy,40,2012-10-27 04:55:00
1:01 AM,60.8,57.2,88,30.08,4.0,Calm,Calm,-,N/A,,Mostly Cloudy,0,2012-10-27 05:01:00
1:06 AM,60.8,57.2,88,30.08,4.0,NE,3.5,-,N/A,,Mostly Cloudy,40,2012-10-27 05:06:00
1:55 AM,60.3,57.7,91,30.06,5.0,ENE,4.6,-,N/A,,Overcast,60,2012-10-27 05:55:00
2:55 AM,60.1,57.6,91,30.05,5.0,NE,4.6,-,N/A,,Overcast,50,2012-10-27 06:55:00
3:14 AM,60.8,57.2,88,30.04,4.0,ENE,4.6,-,N/A,,Overcast,60,2012-10-27 07:14:00
3:45 AM,60.8,57.2,88,30.03,5.0,Calm,Calm,-,N/A,,Overcast,0,2012-10-27 07:45:00
3:55 AM,59.9,57.6,92,30.03,5.0,NE,3.5,-,N/A,,Overcast,40,2012-10-27 07:55:00
4:55 AM,59.9,57.6,92,30.02,4.0,Calm,Calm,-,N/A,,Mostly Cloudy,0,2012-10-27 08:55:00
5:55 AM,59.2,57.7,95,30.01,4.0,Calm,Calm,-,N/A,,Overcast,0,2012-10-27 09:55:00
6:55 AM,59.4,57.9,95,30.02,4.0,ENE,4.6,-,N/A,,Overcast,70,2012-10-27 10:55:00
7:11 AM,59.0,57.2,94,30.02,4.0,ENE,3.5,-,N/A,,Mostly Cloudy,60,2012-10-27 11:11:00
7:55 AM,59.2,58.1,96,30.02,3.0,ENE,4.6,-,N/A,,Overcast,60,2012-10-27 11:55:00
8:55 AM,59.7,57.9,94,30.04,3.0,Variable,3.5,-,N/A,,Overcast,0,2012-10-27 12:55:00
9:55 AM,60.1,55.9,86,30.03,4.0,ENE,4.6,-,N/A,,Haze,60,2012-10-27 13:55:00
10:55 AM,59.9,55.6,86,30.02,4.0,Calm,Calm,-,N/A,,Haze,0,2012-10-27 14:55:00
11:55 AM,60.8,55.4,82,30.01,4.0,East,4.6,-,N/A,,Haze,100,2012-10-27 15:55:00
12:55 PM,62.4,55.2,77,29.98,3.0,NE,3.5,-,N/A,,Haze,40,2012-10-27 16:55:00
1:10 PM,62.6,55.4,77,29.98,2.5,SSE,5.8,-,N/A,,Haze,150,2012-10-27 17:10:00
1:36 PM,62.6,55.4,77,29.97,3.0,East,6.9,-,N/A,,Haze,80,2012-10-27 17:36:00
1:43 PM,62.6,53.6,72,29.97,5.0,East,8.1,-,N/A,,Haze,90,2012-10-27 17:43:00
1:53 PM,62.6,53.6,72,29.97,5.0,ESE,5.8,-,N/A,,Haze,120,2012-10-27 17:53:00
1:55 PM,61.9,54.1,76,29.97,4.0,ESE,6.9,-,N/A,,Haze,110,2012-10-27 17:55:00
1:56 PM,62.6,53.6,72,29.97,4.0,ESE,8.1,-,N/A,,Haze,120,2012-10-27 17:56:00
1:58 PM,62.6,53.6,72,29.97,4.0,East,5.8,-,N/A,,Haze,100,2012-10-27 17:58:00
2:55 PM,63.1,54.7,74,29.94,6.0,ENE,5.8,-,N/A,,Haze,60,2012-10-27 18:55:00
2:58 PM,62.6,55.4,77,29.94,6.0,East,5.8,-,N/A,,Haze,80,2012-10-27 18:58:00
3:55 PM,63.3,54.9,74,29.94,6.0,NE,3.5,-,N/A,,Haze,40,2012-10-27 19:55:00
4:55 PM,62.2,54.0,74,29.95,5.0,ENE,5.8,-,N/A,,Haze,60,2012-10-27 20:55:00
5:55 PM,61.3,54.0,77,29.94,5.0,Calm,Calm,-,N/A,,Haze,0,2012-10-27 21:55:00
6:55 PM,58.8,53.8,83,29.94,5.0,Calm,Calm,-,N/A,,Haze,0,2012-10-27 22:55:00
7:55 PM,58.3,53.8,85,29.94,5.0,Calm,Calm,-,N/A,,Haze,0,2012-10-27 23:55:00
8:55 PM,58.8,52.7,80,29.93,6.0,NE,3.5,-,N/A,,Haze,40,2012-10-28 00:55:00
9:55 PM,58.3,52.7,82,29.92,6.0,NE,3.5,-,N/A,,Haze,50,2012-10-28 01:55:00
10:55 PM,57.4,52.5,84,29.92,5.0,Calm,Calm,-,N/A,,Haze,0,2012-10-28 02:55:00
11:55 PM,57.4,53.1,85,29.91,6.0,NNE,4.6,-,N/A,,Haze,30,2012-10-28 03:55:00